Location: Bacharowice
(49.9333°N, 19.5833°E)
Time: 18:33:04
(UTC+00:00)

USA 305 - Pass Details

Date: 27 September 2021
Orbit: 547 x 588 km, 54.0° (Epoch: 03 October)

Event Time Altitude Azimuth Distance (km) Brightness Sun altitude
Rises 17:11:05 0° 289° (WNW) 2,738 8.3 -7.7°
Reaches altitude 10° 17:13:21 10° 294° (WNW) 1,849 6.9 -8.0°
Maximum altitude 17:17:29 56° 13° (NNE) 674 3.2 -8.7°
Enters shadow 17:21:17 12° 91° (E) 1,720 4.7 -9.3°
